Location: Newark
(26.8229°N, 81.7649°W)
Time: 23:58:33
(UTC+00:00)

Hubble Space Telescope - Pass Details

Date: 26 January 2020
Orbit: 536 x 540 km, 28.5° (Epoch: 20 February)

Event Time Altitude Azimuth Distance (km) Brightness Sun altitude
Rises 10:57:37 0° 208° (SSW) 2,659 4.2 -17.4°
Reaches altitude 10° 11:00:55 10° 181° (S) 1,772 3.6 -16.7°
Maximum altitude 11:02:53 13° 152° (SSE) 1,581 3.7 -16.2°
Drops below altitude 10° 11:04:51 10° 123° (ESE) 1,776 4.6 -15.8°
Sets 11:08:09 0° 95° (E) 2,669 6.1 -15.1°
